Year,Month,Day,Hour,Minute,Value (Times are PST for temperature in C)
2007,08,14,00,00,12.40
2007,08,14,00,01,12.30
2007,08,14,00,02,12.30
2007,08,14,00,03,12.30
2007,08,14,00,04,12.30
2007,08,14,00,05,12.30
2007,08,14,00,06,12.30
2007,08,14,00,07,12.30
2007,08,14,00,08,12.30
2007,08,14,00,09,12.20
2007,08,14,00,10,12.20
2007,08,14,00,11,12.20
2007,08,14,00,12,12.30
2007,08,14,00,13,12.30
2007,08,14,00,14,12.30
2007,08,14,00,15,12.30
2007,08,14,00,16,12.30
2007,08,14,00,17,12.30
2007,08,14,00,18,12.30
2007,08,14,00,19,12.30
2007,08,14,00,20,12.30
2007,08,14,00,21,12.30
2007,08,14,00,22,12.30
2007,08,14,00,23,12.20
2007,08,14,00,24,12.20
2007,08,14,00,25,12.20
2007,08,14,00,26,12.10
2007,08,14,00,27,12.10
2007,08,14,00,28,12.10
2007,08,14,00,29,12.10
2007,08,14,00,30,12.10
2007,08,14,00,31,12.20
2007,08,14,00,32,12.20
2007,08,14,00,33,12.20
2007,08,14,00,34,12.20
2007,08,14,00,35,12.20
2007,08,14,00,36,12.20
2007,08,14,00,37,12.30
2007,08,14,00,38,12.30
2007,08,14,00,39,12.30
2007,08,14,00,40,12.30
2007,08,14,00,41,12.30
2007,08,14,00,42,12.30
2007,08,14,00,43,12.30
2007,08,14,00,44,12.30
2007,08,14,00,45,12.30
2007,08,14,00,46,12.30
2007,08,14,00,47,12.30
2007,08,14,00,48,12.30
2007,08,14,00,49,12.30
2007,08,14,00,50,12.30
2007,08,14,00,51,12.40
2007,08,14,00,52,12.40
2007,08,14,00,53,12.40
2007,08,14,00,54,12.40
2007,08,14,00,55,12.40
2007,08,14,00,56,12.40
2007,08,14,00,57,12.40
2007,08,14,00,58,12.50
2007,08,14,00,59,12.50
2007,08,14,01,00,12.50
2007,08,14,01,01,12.50
2007,08,14,01,02,12.50
2007,08,14,01,03,12.50
2007,08,14,01,04,12.50
2007,08,14,01,05,12.50
2007,08,14,01,06,12.50
2007,08,14,01,07,12.60
2007,08,14,01,08,12.60
2007,08,14,01,09,12.60
2007,08,14,01,10,12.60
2007,08,14,01,11,12.60
2007,08,14,01,12,12.60
2007,08,14,01,13,12.60
2007,08,14,01,14,12.60
2007,08,14,01,15,12.70
2007,08,14,01,16,12.70
2007,08,14,01,17,12.70
2007,08,14,01,18,12.70
2007,08,14,01,19,12.70
2007,08,14,01,20,12.70
2007,08,14,01,21,12.80
2007,08,14,01,22,12.80
2007,08,14,01,23,12.80
2007,08,14,01,24,12.80
2007,08,14,01,25,12.80
2007,08,14,01,26,12.80
2007,08,14,01,27,12.90
2007,08,14,01,28,12.90
2007,08,14,01,29,12.90
2007,08,14,01,30,12.90
2007,08,14,01,31,12.90
2007,08,14,01,32,12.90
2007,08,14,01,33,12.90
2007,08,14,01,34,12.90
2007,08,14,01,35,12.90
2007,08,14,01,36,13.00
2007,08,14,01,37,13.00
2007,08,14,01,38,13.00
2007,08,14,01,39,13.00
2007,08,14,01,40,13.00
2007,08,14,01,41,13.00
2007,08,14,01,42,13.00
2007,08,14,01,43,13.00
2007,08,14,01,44,13.10
2007,08,14,01,45,13.10
2007,08,14,01,46,13.10
2007,08,14,01,47,13.10
2007,08,14,01,48,13.10
2007,08,14,01,49,13.10
2007,08,14,01,50,13.10
2007,08,14,01,51,13.00
2007,08,14,01,52,13.00
2007,08,14,01,53,13.00
2007,08,14,01,54,13.00
2007,08,14,01,55,13.00
2007,08,14,01,56,13.00
2007,08,14,01,57,12.90
2007,08,14,01,58,12.90
2007,08,14,01,59,13.00
2007,08,14,02,00,13.00
2007,08,14,02,01,13.00
2007,08,14,02,02,13.00
2007,08,14,02,03,13.00
2007,08,14,02,04,13.00
2007,08,14,02,05,13.00
2007,08,14,02,06,13.00
2007,08,14,02,07,13.10
2007,08,14,02,08,13.10
2007,08,14,02,09,13.10
2007,08,14,02,10,13.10
2007,08,14,02,11,13.10
2007,08,14,02,12,13.10
2007,08,14,02,13,13.10
2007,08,14,02,14,13.00
2007,08,14,02,15,13.00
2007,08,14,02,16,13.00
2007,08,14,02,17,13.00
2007,08,14,02,18,13.00
2007,08,14,02,19,13.00
2007,08,14,02,20,13.00
2007,08,14,02,21,13.00
2007,08,14,02,22,13.00
2007,08,14,02,23,13.00
2007,08,14,02,24,13.10
2007,08,14,02,25,13.00
2007,08,14,02,26,13.00
2007,08,14,02,27,13.00
2007,08,14,02,28,12.90
2007,08,14,02,29,12.90
2007,08,14,02,30,12.90
2007,08,14,02,31,12.80
2007,08,14,02,32,12.80
2007,08,14,02,33,12.70
2007,08,14,02,34,12.60
2007,08,14,02,35,12.60
2007,08,14,02,36,12.50
2007,08,14,02,37,12.40
2007,08,14,02,38,12.40
2007,08,14,02,39,12.40
2007,08,14,02,40,12.30
2007,08,14,02,41,12.30
2007,08,14,02,42,12.20
2007,08,14,02,43,12.20
2007,08,14,02,44,12.20
2007,08,14,02,45,12.10
2007,08,14,02,46,12.10
2007,08,14,02,47,12.10
2007,08,14,02,48,12.10
2007,08,14,02,49,12.10
2007,08,14,02,50,12.10
2007,08,14,02,51,12.10
2007,08,14,02,52,12.10
2007,08,14,02,53,12.00
2007,08,14,02,54,12.00
2007,08,14,02,55,12.00
2007,08,14,02,56,11.90
2007,08,14,02,57,11.90
2007,08,14,02,58,11.90
2007,08,14,02,59,11.90
2007,08,14,03,00,11.80
2007,08,14,03,01,11.80
2007,08,14,03,02,11.80
2007,08,14,03,03,11.70
2007,08,14,03,04,11.70
2007,08,14,03,05,11.70
2007,08,14,03,06,11.60
2007,08,14,03,07,11.60
2007,08,14,03,08,11.60
2007,08,14,03,09,11.60
2007,08,14,03,10,11.50
2007,08,14,03,11,11.50
2007,08,14,03,12,11.40
2007,08,14,03,13,11.40
2007,08,14,03,14,11.40
2007,08,14,03,15,11.40
2007,08,14,03,16,11.30
2007,08,14,03,17,11.30
2007,08,14,03,18,11.30
2007,08,14,03,19,11.30
2007,08,14,03,20,11.30
2007,08,14,03,21,11.30
2007,08,14,03,22,11.30
2007,08,14,03,23,11.20
2007,08,14,03,24,11.20
2007,08,14,03,25,11.20
2007,08,14,03,26,11.20
2007,08,14,03,27,11.20
2007,08,14,03,28,11.20
2007,08,14,03,29,11.20
2007,08,14,03,30,11.20
2007,08,14,03,31,11.10
2007,08,14,03,32,11.10
2007,08,14,03,33,11.10
2007,08,14,03,34,11.10
2007,08,14,03,35,11.10
2007,08,14,03,36,11.20
2007,08,14,03,37,11.20
2007,08,14,03,38,11.20
2007,08,14,03,39,11.20
2007,08,14,03,40,11.20
2007,08,14,03,41,11.20
2007,08,14,03,42,11.30
2007,08,14,03,43,11.30
2007,08,14,03,44,11.30
2007,08,14,03,45,11.30
2007,08,14,03,46,11.40
2007,08,14,03,47,11.40
2007,08,14,03,48,11.40
2007,08,14,03,49,11.40
2007,08,14,03,50,11.40
2007,08,14,03,51,11.40
2007,08,14,03,52,11.30
2007,08,14,03,53,11.30
2007,08,14,03,54,11.30
2007,08,14,03,55,11.30
2007,08,14,03,56,11.30
2007,08,14,03,57,11.30
2007,08,14,03,58,11.30
2007,08,14,03,59,11.30
2007,08,14,04,00,11.20
2007,08,14,04,01,11.20
2007,08,14,04,02,11.20
2007,08,14,04,03,11.20
2007,08,14,04,04,11.20
2007,08,14,04,05,11.20
2007,08,14,04,06,11.20
2007,08,14,04,07,11.20
2007,08,14,04,08,11.20
2007,08,14,04,09,11.20
2007,08,14,04,10,11.20
2007,08,14,04,11,11.10
2007,08,14,04,12,11.10
2007,08,14,04,13,11.10
2007,08,14,04,14,11.10
2007,08,14,04,15,11.10
2007,08,14,04,16,11.10
2007,08,14,04,17,11.10
2007,08,14,04,18,11.10
2007,08,14,04,19,11.20
2007,08,14,04,20,11.20
2007,08,14,04,21,11.20
2007,08,14,04,22,11.20
2007,08,14,04,23,11.20
2007,08,14,04,24,11.20
2007,08,14,04,25,11.30
2007,08,14,04,26,11.30
2007,08,14,04,27,11.30
2007,08,14,04,28,11.30
2007,08,14,04,29,11.30
2007,08,14,04,30,11.30
2007,08,14,04,31,11.40
2007,08,14,04,32,11.40
2007,08,14,04,33,11.40
2007,08,14,04,34,11.40
2007,08,14,04,35,11.40
2007,08,14,04,36,11.40
2007,08,14,04,37,11.40
2007,08,14,04,38,11.40
2007,08,14,04,39,11.40
2007,08,14,04,40,11.40
2007,08,14,04,41,11.30
2007,08,14,04,42,11.30
2007,08,14,04,43,11.30
2007,08,14,04,44,11.20
2007,08,14,04,45,11.10
2007,08,14,04,46,11.10
2007,08,14,04,47,11.10
2007,08,14,04,48,11.00
2007,08,14,04,49,11.00
2007,08,14,04,50,11.00
2007,08,14,04,51,11.00
2007,08,14,04,52,11.00
2007,08,14,04,53,11.00
2007,08,14,04,54,11.00
2007,08,14,04,55,11.10
2007,08,14,04,56,11.10
2007,08,14,04,57,11.00
2007,08,14,04,58,11.00
2007,08,14,04,59,11.00
2007,08,14,05,00,11.00
2007,08,14,05,01,10.90
2007,08,14,05,02,10.90
2007,08,14,05,03,10.90
2007,08,14,05,04,10.90
2007,08,14,05,05,10.80
2007,08,14,05,06,10.80
2007,08,14,05,07,10.80
2007,08,14,05,08,10.80
2007,08,14,05,09,10.80
2007,08,14,05,10,10.80
2007,08,14,05,11,10.80
2007,08,14,05,12,10.80
2007,08,14,05,13,10.80
2007,08,14,05,14,10.80
2007,08,14,05,15,10.80
2007,08,14,05,16,10.70
2007,08,14,05,17,10.70
2007,08,14,05,18,10.70
2007,08,14,05,19,10.80
2007,08,14,05,20,10.80
2007,08,14,05,21,10.80
2007,08,14,05,22,10.80
2007,08,14,05,23,10.90
2007,08,14,05,24,10.90
2007,08,14,05,25,10.90
2007,08,14,05,26,10.90
2007,08,14,05,27,10.90
2007,08,14,05,28,10.90
2007,08,14,05,29,10.90
2007,08,14,05,30,10.90
2007,08,14,05,31,10.90
2007,08,14,05,32,11.00
2007,08,14,05,33,11.00
2007,08,14,05,34,11.00
2007,08,14,05,35,10.90
2007,08,14,05,36,10.90
2007,08,14,05,37,10.90
2007,08,14,05,38,10.90
2007,08,14,05,39,10.90
2007,08,14,05,40,10.80
2007,08,14,05,41,10.80
2007,08,14,05,42,10.80
2007,08,14,05,43,10.70
2007,08,14,05,44,10.70
2007,08,14,05,45,10.60
2007,08,14,05,46,10.60
2007,08,14,05,47,10.60
2007,08,14,05,48,10.50
2007,08,14,05,49,10.50
2007,08,14,05,50,10.40
2007,08,14,05,51,10.40
2007,08,14,05,52,10.40
2007,08,14,05,53,10.40
2007,08,14,05,54,10.40
2007,08,14,05,55,10.30
2007,08,14,05,56,10.30
2007,08,14,05,57,10.30
2007,08,14,05,58,10.20
2007,08,14,05,59,10.20
2007,08,14,06,00,10.20
2007,08,14,06,01,10.20
2007,08,14,06,02,10.10
2007,08,14,06,03,10.10
2007,08,14,06,04,10.10
2007,08,14,06,05,10.10
2007,08,14,06,06,10.10
2007,08,14,06,07,10.10
2007,08,14,06,08,10.10
2007,08,14,06,09,10.20
2007,08,14,06,10,10.20
2007,08,14,06,11,10.30
2007,08,14,06,12,10.30
2007,08,14,06,13,10.30
2007,08,14,06,14,10.30
2007,08,14,06,15,10.20
2007,08,14,06,16,10.20
2007,08,14,06,17,10.20
2007,08,14,06,18,10.20
2007,08,14,06,19,10.20
2007,08,14,06,20,10.20
2007,08,14,06,21,10.20
2007,08,14,06,22,10.30
2007,08,14,06,23,10.30
2007,08,14,06,24,10.30
2007,08,14,06,25,10.40
2007,08,14,06,26,10.40
2007,08,14,06,27,10.40
2007,08,14,06,28,10.40
2007,08,14,06,29,10.40
2007,08,14,06,30,10.40
2007,08,14,06,31,10.30
2007,08,14,06,32,10.30
2007,08,14,06,33,10.30
2007,08,14,06,34,10.30
2007,08,14,06,35,10.30
2007,08,14,06,36,10.30
2007,08,14,06,37,10.30
2007,08,14,06,38,10.30
2007,08,14,06,39,10.30
2007,08,14,06,40,10.30
2007,08,14,06,41,10.40
2007,08,14,06,42,10.50
2007,08,14,06,43,10.60
2007,08,14,06,44,10.60
2007,08,14,06,45,10.70
2007,08,14,06,46,10.80
2007,08,14,06,47,10.90
2007,08,14,06,48,10.90
2007,08,14,06,49,11.00
2007,08,14,06,50,11.10
2007,08,14,06,51,11.20
2007,08,14,06,52,11.20
2007,08,14,06,53,11.30
2007,08,14,06,54,11.40
2007,08,14,06,55,11.40
2007,08,14,06,56,11.50
2007,08,14,06,57,11.50
2007,08,14,06,58,11.60
2007,08,14,06,59,11.70
2007,08,14,07,00,11.70
2007,08,14,07,01,11.70
2007,08,14,07,02,11.80
2007,08,14,07,03,11.80
2007,08,14,07,04,11.90
2007,08,14,07,05,11.90
2007,08,14,07,06,11.90
2007,08,14,07,07,12.00
2007,08,14,07,08,12.00
2007,08,14,07,09,12.10
2007,08,14,07,10,12.10
2007,08,14,07,11,12.10
2007,08,14,07,12,12.10
2007,08,14,07,13,12.20
2007,08,14,07,14,12.20
2007,08,14,07,15,12.30
2007,08,14,07,16,12.30
2007,08,14,07,17,12.30
2007,08,14,07,18,12.30
2007,08,14,07,19,12.40
2007,08,14,07,20,12.40
2007,08,14,07,21,12.40
2007,08,14,07,22,12.50
2007,08,14,07,23,12.50
2007,08,14,07,24,12.60
2007,08,14,07,25,12.60
2007,08,14,07,26,12.60
2007,08,14,07,27,12.70
2007,08,14,07,28,12.70
2007,08,14,07,29,12.70
2007,08,14,07,30,12.80
2007,08,14,07,31,12.80
2007,08,14,07,32,12.80
2007,08,14,07,33,12.90
2007,08,14,07,34,12.90
2007,08,14,07,35,12.90
2007,08,14,07,36,12.90
2007,08,14,07,37,13.00
2007,08,14,07,38,13.00
2007,08,14,07,39,13.10
2007,08,14,07,40,13.10
2007,08,14,07,41,13.10
2007,08,14,07,42,13.20
2007,08,14,07,43,13.20
2007,08,14,07,44,13.20
2007,08,14,07,45,13.30
2007,08,14,07,46,13.30
2007,08,14,07,47,13.30
2007,08,14,07,48,13.30
2007,08,14,07,49,13.30
2007,08,14,07,50,13.30
2007,08,14,07,51,13.30
2007,08,14,07,52,13.30
2007,08,14,07,53,13.30
2007,08,14,07,54,13.40
2007,08,14,07,55,13.40
2007,08,14,07,56,13.40
2007,08,14,07,57,13.50
2007,08,14,07,58,13.50
2007,08,14,07,59,13.60
2007,08,14,08,00,13.60
2007,08,14,08,01,13.60
2007,08,14,08,02,13.70
2007,08,14,08,03,13.70
2007,08,14,08,04,13.70
2007,08,14,08,05,13.80
2007,08,14,08,06,13.80
2007,08,14,08,07,13.80
2007,08,14,08,08,13.90
2007,08,14,08,09,13.90
2007,08,14,08,10,14.00
2007,08,14,08,11,14.00
2007,08,14,08,12,14.10
2007,08,14,08,13,14.10
2007,08,14,08,14,14.20
2007,08,14,08,15,14.20
2007,08,14,08,16,14.30
2007,08,14,08,17,14.30
2007,08,14,08,18,14.30
2007,08,14,08,19,14.30
2007,08,14,08,20,14.40
2007,08,14,08,21,14.40
2007,08,14,08,22,14.50
2007,08,14,08,23,14.50
2007,08,14,08,24,14.60
2007,08,14,08,25,14.60
2007,08,14,08,26,14.60
2007,08,14,08,27,14.60
2007,08,14,08,28,14.60
2007,08,14,08,29,14.70
2007,08,14,08,30,14.70
2007,08,14,08,31,14.70
2007,08,14,08,32,14.70
2007,08,14,08,33,14.70
2007,08,14,08,34,14.70
2007,08,14,08,35,14.80
2007,08,14,08,36,14.80
2007,08,14,08,37,14.80
2007,08,14,08,38,14.90
2007,08,14,08,39,15.00
2007,08,14,08,40,15.00
2007,08,14,08,41,15.00
2007,08,14,08,42,15.00
2007,08,14,08,43,15.00
2007,08,14,08,44,15.00
2007,08,14,08,45,15.10
2007,08,14,08,46,15.20
2007,08,14,08,47,15.30
2007,08,14,08,48,15.40
2007,08,14,08,49,15.50
2007,08,14,08,50,15.50
2007,08,14,08,51,15.60
2007,08,14,08,52,15.60
2007,08,14,08,53,15.70
2007,08,14,08,54,15.80
2007,08,14,08,55,15.80
2007,08,14,08,56,15.80
2007,08,14,08,57,15.80
2007,08,14,08,58,15.90
2007,08,14,08,59,15.90
2007,08,14,09,00,15.90
2007,08,14,09,01,15.90
2007,08,14,09,02,15.90
2007,08,14,09,03,15.90
2007,08,14,09,04,15.90
2007,08,14,09,05,16.00
2007,08,14,09,06,16.10
2007,08,14,09,07,16.10
2007,08,14,09,08,16.20
2007,08,14,09,09,16.20
2007,08,14,09,10,16.20
2007,08,14,09,11,16.30
2007,08,14,09,12,16.30
2007,08,14,09,13,16.40
2007,08,14,09,14,16.50
2007,08,14,09,15,16.60
2007,08,14,09,16,16.70
2007,08,14,09,17,16.70
2007,08,14,09,18,16.80
2007,08,14,09,19,16.90
2007,08,14,09,20,16.90
2007,08,14,09,21,17.00
2007,08,14,09,22,17.10
2007,08,14,09,23,17.20
2007,08,14,09,24,17.20
2007,08,14,09,25,17.30
2007,08,14,09,26,17.30
2007,08,14,09,27,17.30
2007,08,14,09,28,17.40
2007,08,14,09,29,17.40
2007,08,14,09,30,17.50
2007,08,14,09,31,17.60
2007,08,14,09,32,17.70
2007,08,14,09,33,17.70
2007,08,14,09,34,17.80
2007,08,14,09,35,17.90
2007,08,14,09,36,18.00
2007,08,14,09,37,18.10
2007,08,14,09,38,18.20
2007,08,14,09,39,18.20
2007,08,14,09,40,18.30
2007,08,14,09,41,18.30
2007,08,14,09,42,18.20
2007,08,14,09,43,18.20
2007,08,14,09,44,18.10
2007,08,14,09,45,18.00
2007,08,14,09,46,17.90
2007,08,14,09,47,17.90
2007,08,14,09,48,17.90
2007,08,14,09,49,18.00
2007,08,14,09,50,18.00
2007,08,14,09,51,18.10
2007,08,14,09,52,18.10
2007,08,14,09,53,18.20
2007,08,14,09,54,18.20
2007,08,14,09,55,18.20
2007,08,14,09,56,18.30
2007,08,14,09,57,18.30
2007,08,14,09,58,18.30
2007,08,14,09,59,18.30
2007,08,14,10,00,18.30
2007,08,14,10,01,18.30
2007,08,14,10,02,18.30
2007,08,14,10,03,18.30
2007,08,14,10,04,18.30
2007,08,14,10,05,18.30
2007,08,14,10,06,18.40
2007,08,14,10,07,18.40
2007,08,14,10,08,18.40
2007,08,14,10,09,18.50
2007,08,14,10,10,18.60
2007,08,14,10,11,18.70
2007,08,14,10,12,18.70
2007,08,14,10,13,18.70
2007,08,14,10,14,18.70
2007,08,14,10,15,18.80
2007,08,14,10,16,18.80
2007,08,14,10,17,18.80
2007,08,14,10,18,18.80
2007,08,14,10,19,18.90
2007,08,14,10,20,18.90
2007,08,14,10,21,18.90
2007,08,14,10,22,19.00
2007,08,14,10,23,19.10
2007,08,14,10,24,19.10
2007,08,14,10,25,19.30
2007,08,14,10,26,19.30
2007,08,14,10,27,19.40
2007,08,14,10,28,19.50
2007,08,14,10,29,19.60
2007,08,14,10,30,19.60
2007,08,14,10,31,19.60
2007,08,14,10,32,19.60
2007,08,14,10,33,19.60
2007,08,14,10,34,19.50
2007,08,14,10,35,19.50
2007,08,14,10,36,19.50
2007,08,14,10,37,19.50
2007,08,14,10,38,19.50
2007,08,14,10,39,19.60
2007,08,14,10,40,19.50
2007,08,14,10,41,19.50
2007,08,14,10,42,19.50
2007,08,14,10,43,19.50
2007,08,14,10,44,19.60
2007,08,14,10,45,19.70
2007,08,14,10,46,19.70
2007,08,14,10,47,19.70
2007,08,14,10,48,19.70
2007,08,14,10,49,19.70
2007,08,14,10,50,19.80
2007,08,14,10,51,19.90
2007,08,14,10,52,19.90
2007,08,14,10,53,20.00
2007,08,14,10,54,20.00
2007,08,14,10,55,20.00
2007,08,14,10,56,20.00
2007,08,14,10,57,20.00
2007,08,14,10,58,20.10
2007,08,14,10,59,20.20
2007,08,14,11,00,20.30
2007,08,14,11,01,20.50
2007,08,14,11,02,20.60
2007,08,14,11,03,20.70
2007,08,14,11,04,20.80
2007,08,14,11,05,20.70
2007,08,14,11,06,20.80
2007,08,14,11,07,21.00
2007,08,14,11,08,21.10
2007,08,14,11,09,21.20
2007,08,14,11,10,21.30
2007,08,14,11,11,21.50
2007,08,14,11,12,21.50
2007,08,14,11,13,21.40
2007,08,14,11,14,21.40
2007,08,14,11,15,21.40
2007,08,14,11,16,21.40
2007,08,14,11,17,21.30
2007,08,14,11,18,21.20
2007,08,14,11,19,21.10
2007,08,14,11,20,21.00
2007,08,14,11,21,21.00
2007,08,14,11,22,20.90
2007,08,14,11,23,20.90
2007,08,14,11,24,20.90
2007,08,14,11,25,20.90
2007,08,14,11,26,20.90
2007,08,14,11,27,20.90
2007,08,14,11,28,20.90
2007,08,14,11,29,20.90
2007,08,14,11,30,21.00
2007,08,14,11,31,21.10
2007,08,14,11,32,21.20
2007,08,14,11,33,21.40
2007,08,14,11,34,21.50
2007,08,14,11,35,21.60
2007,08,14,11,36,21.60
2007,08,14,11,37,21.60
2007,08,14,11,38,21.60
2007,08,14,11,39,21.70
2007,08,14,11,40,21.80
2007,08,14,11,41,21.80
2007,08,14,11,42,21.90
2007,08,14,11,43,22.00
2007,08,14,11,44,22.10
2007,08,14,11,45,22.20
2007,08,14,11,46,22.10
2007,08,14,11,47,21.90
2007,08,14,11,48,21.90
2007,08,14,11,49,21.90
2007,08,14,11,50,21.90
2007,08,14,11,51,21.90
2007,08,14,11,52,21.90
2007,08,14,11,53,21.90
2007,08,14,11,54,21.90
2007,08,14,11,55,21.90
2007,08,14,11,56,21.90
2007,08,14,11,57,21.90
2007,08,14,11,58,22.00
2007,08,14,11,59,22.00
2007,08,14,12,00,22.00
2007,08,14,12,01,22.10
2007,08,14,12,02,22.20
2007,08,14,12,03,22.40
2007,08,14,12,04,22.50
2007,08,14,12,05,22.60
2007,08,14,12,06,22.70
2007,08,14,12,07,22.60
2007,08,14,12,08,22.60
2007,08,14,12,09,22.60
2007,08,14,12,10,22.60
2007,08,14,12,11,22.60
2007,08,14,12,12,22.60
2007,08,14,12,13,22.60
2007,08,14,12,14,22.50
2007,08,14,12,15,22.50
2007,08,14,12,16,22.60
2007,08,14,12,17,22.50
2007,08,14,12,18,22.50
2007,08,14,12,19,22.50
2007,08,14,12,20,22.60
2007,08,14,12,21,22.60
2007,08,14,12,22,22.50
2007,08,14,12,23,22.40
2007,08,14,12,24,22.50
2007,08,14,12,25,22.40
2007,08,14,12,26,22.40
2007,08,14,12,27,22.30
2007,08,14,12,28,22.30
2007,08,14,12,29,22.20
2007,08,14,12,30,22.10
2007,08,14,12,31,22.10
2007,08,14,12,32,22.10
2007,08,14,12,33,22.20
2007,08,14,12,34,22.10
2007,08,14,12,35,22.00
2007,08,14,12,36,21.90
2007,08,14,12,37,21.80
2007,08,14,12,38,21.70
2007,08,14,12,39,21.70
2007,08,14,12,40,21.70
2007,08,14,12,41,21.70
2007,08,14,12,42,21.70
2007,08,14,12,43,21.70
2007,08,14,12,44,21.80
2007,08,14,12,45,21.70
2007,08,14,12,46,21.60
2007,08,14,12,47,21.60
2007,08,14,12,48,21.70
2007,08,14,12,49,21.70
2007,08,14,12,50,21.70
2007,08,14,12,51,21.90
2007,08,14,12,52,22.10
2007,08,14,12,53,22.30
2007,08,14,12,54,22.30
2007,08,14,12,55,22.20
2007,08,14,12,56,22.10
2007,08,14,12,57,22.00
2007,08,14,12,58,21.90
2007,08,14,12,59,21.80
2007,08,14,13,00,21.80
2007,08,14,13,01,21.80
2007,08,14,13,02,21.80
2007,08,14,13,03,21.80
2007,08,14,13,04,21.90
2007,08,14,13,05,21.80
2007,08,14,13,06,21.80
2007,08,14,13,07,21.70
2007,08,14,13,08,21.70
2007,08,14,13,09,21.60
2007,08,14,13,10,21.60
2007,08,14,13,11,21.70
2007,08,14,13,12,21.70
2007,08,14,13,13,21.70
2007,08,14,13,14,21.70
2007,08,14,13,15,21.90
2007,08,14,13,16,22.10
2007,08,14,13,17,22.30
2007,08,14,13,18,22.40
2007,08,14,13,19,22.40
2007,08,14,13,20,22.50
2007,08,14,13,21,22.40
2007,08,14,13,22,22.40
2007,08,14,13,23,22.40
2007,08,14,13,24,22.20
2007,08,14,13,25,22.00
2007,08,14,13,26,21.80
2007,08,14,13,27,21.80
2007,08,14,13,28,21.90
2007,08,14,13,29,22.00
2007,08,14,13,30,21.90
2007,08,14,13,31,21.90
2007,08,14,13,32,21.90
2007,08,14,13,33,22.00
2007,08,14,13,34,21.90
2007,08,14,13,35,21.80
2007,08,14,13,36,21.70
2007,08,14,13,37,21.60
2007,08,14,13,38,21.60
2007,08,14,13,39,21.70
2007,08,14,13,40,21.80
2007,08,14,13,41,21.80
2007,08,14,13,42,22.00
2007,08,14,13,43,22.10
2007,08,14,13,44,22.10
2007,08,14,13,45,22.00
2007,08,14,13,46,22.00
2007,08,14,13,47,21.90
2007,08,14,13,48,21.80
2007,08,14,13,49,21.80
2007,08,14,13,50,21.70
2007,08,14,13,51,21.70
2007,08,14,13,52,21.70
2007,08,14,13,53,21.70
2007,08,14,13,54,21.80
2007,08,14,13,55,21.90
2007,08,14,13,56,22.20
2007,08,14,13,57,22.40
2007,08,14,13,58,22.50
2007,08,14,13,59,22.60
2007,08,14,14,00,22.80
2007,08,14,14,01,22.70
2007,08,14,14,02,22.60
2007,08,14,14,03,22.50
2007,08,14,14,04,22.40
2007,08,14,14,05,22.40
2007,08,14,14,06,22.30
2007,08,14,14,07,22.40
2007,08,14,14,08,22.50
2007,08,14,14,09,22.60
2007,08,14,14,10,22.60
2007,08,14,14,11,22.60
2007,08,14,14,12,22.50
2007,08,14,14,13,22.50
2007,08,14,14,14,22.60
2007,08,14,14,15,22.60
2007,08,14,14,16,22.70
2007,08,14,14,17,22.90
2007,08,14,14,18,23.10
2007,08,14,14,19,23.20
2007,08,14,14,20,23.20
2007,08,14,14,21,23.20
2007,08,14,14,22,23.20
2007,08,14,14,23,23.20
2007,08,14,14,24,23.10
2007,08,14,14,25,23.00
2007,08,14,14,26,22.80
2007,08,14,14,27,22.80
2007,08,14,14,28,22.80
2007,08,14,14,29,22.80
2007,08,14,14,30,22.80
2007,08,14,14,31,22.80
2007,08,14,14,32,22.90
2007,08,14,14,33,22.90
2007,08,14,14,34,22.90
2007,08,14,14,35,22.90
2007,08,14,14,36,22.90
2007,08,14,14,37,22.80
2007,08,14,14,38,22.80
2007,08,14,14,39,23.00
2007,08,14,14,40,23.10
2007,08,14,14,41,23.20
2007,08,14,14,42,23.40
2007,08,14,14,43,23.50
2007,08,14,14,44,23.50
2007,08,14,14,45,23.40
2007,08,14,14,46,23.40
2007,08,14,14,47,23.40
2007,08,14,14,48,23.40
2007,08,14,14,49,23.40
2007,08,14,14,50,23.40
2007,08,14,14,51,23.40
2007,08,14,14,52,23.40
2007,08,14,14,53,23.50
2007,08,14,14,54,23.50
2007,08,14,14,55,23.60
2007,08,14,14,56,23.60
2007,08,14,14,57,23.60
2007,08,14,14,58,23.70
2007,08,14,14,59,23.80
2007,08,14,15,00,23.90
2007,08,14,15,01,23.80
2007,08,14,15,02,23.90
2007,08,14,15,03,24.00
2007,08,14,15,04,24.10
2007,08,14,15,05,24.10
2007,08,14,15,06,24.10
2007,08,14,15,07,24.00
2007,08,14,15,08,24.00
2007,08,14,15,09,23.90
2007,08,14,15,10,23.90
2007,08,14,15,11,23.90
2007,08,14,15,12,23.80
2007,08,14,15,13,23.70
2007,08,14,15,14,23.50
2007,08,14,15,15,23.40
2007,08,14,15,16,23.30
2007,08,14,15,17,23.30
2007,08,14,15,18,23.30
2007,08,14,15,19,23.30
2007,08,14,15,20,23.30
2007,08,14,15,21,23.20
2007,08,14,15,22,23.20
2007,08,14,15,23,23.20
2007,08,14,15,24,23.30
2007,08,14,15,25,23.30
2007,08,14,15,26,23.30
2007,08,14,15,27,23.30
2007,08,14,15,28,23.40
2007,08,14,15,29,23.60
2007,08,14,15,30,23.80
2007,08,14,15,31,23.90
2007,08,14,15,32,24.00
2007,08,14,15,33,23.90
2007,08,14,15,34,23.80
2007,08,14,15,35,23.70
2007,08,14,15,36,23.50
2007,08,14,15,37,23.50
2007,08,14,15,38,23.40
2007,08,14,15,39,23.40
2007,08,14,15,40,23.40
2007,08,14,15,41,23.50
2007,08,14,15,42,23.50
2007,08,14,15,43,23.60
2007,08,14,15,44,23.60
2007,08,14,15,45,23.60
2007,08,14,15,46,23.70
2007,08,14,15,47,23.80
2007,08,14,15,48,23.90
2007,08,14,15,49,23.90
2007,08,14,15,50,23.80
2007,08,14,15,51,23.70
2007,08,14,15,52,23.70
2007,08,14,15,53,23.70
2007,08,14,15,54,23.80
2007,08,14,15,55,23.80
2007,08,14,15,56,23.80
2007,08,14,15,57,23.80
2007,08,14,15,58,23.80
2007,08,14,15,59,23.80
2007,08,14,16,00,23.80
2007,08,14,16,01,23.80
2007,08,14,16,02,23.80
2007,08,14,16,03,23.70
2007,08,14,16,04,23.60
2007,08,14,16,05,23.60
2007,08,14,16,06,23.70
2007,08,14,16,07,23.60
2007,08,14,16,08,23.60
2007,08,14,16,09,23.60
2007,08,14,16,10,23.60
2007,08,14,16,11,23.60
2007,08,14,16,12,23.60
2007,08,14,16,13,23.60
2007,08,14,16,14,23.60
2007,08,14,16,15,23.50
2007,08,14,16,16,23.50
2007,08,14,16,17,23.50
2007,08,14,16,18,23.50
2007,08,14,16,19,23.50
2007,08,14,16,20,23.50
2007,08,14,16,21,23.60
2007,08,14,16,22,23.50
2007,08,14,16,23,23.50
2007,08,14,16,24,23.40
2007,08,14,16,25,23.40
2007,08,14,16,26,23.40
2007,08,14,16,27,23.30
2007,08,14,16,28,23.20
2007,08,14,16,29,23.10
2007,08,14,16,30,23.10
2007,08,14,16,31,23.00
2007,08,14,16,32,23.00
2007,08,14,16,33,23.10
2007,08,14,16,34,23.20
2007,08,14,16,35,23.30
2007,08,14,16,36,23.40
2007,08,14,16,37,23.40
2007,08,14,16,38,23.60
2007,08,14,16,39,23.70
2007,08,14,16,40,23.80
2007,08,14,16,41,23.90
2007,08,14,16,42,24.00
2007,08,14,16,43,24.00
2007,08,14,16,44,24.10
2007,08,14,16,45,24.10
2007,08,14,16,46,24.20
2007,08,14,16,47,24.30
2007,08,14,16,48,24.30
2007,08,14,16,49,24.30
2007,08,14,16,50,24.40
2007,08,14,16,51,24.40
2007,08,14,16,52,24.40
2007,08,14,16,53,24.40
2007,08,14,16,54,24.40
2007,08,14,16,55,24.40
2007,08,14,16,56,24.30
2007,08,14,16,57,24.20
2007,08,14,16,58,24.10
2007,08,14,16,59,24.10
2007,08,14,17,00,24.10
2007,08,14,17,01,24.00
2007,08,14,17,02,24.00
2007,08,14,17,03,23.90
2007,08,14,17,04,23.90
2007,08,14,17,05,23.90
2007,08,14,17,06,23.80
2007,08,14,17,07,23.80
2007,08,14,17,08,23.70
2007,08,14,17,09,23.70
2007,08,14,17,10,23.60
2007,08,14,17,11,23.60
2007,08,14,17,12,23.60
2007,08,14,17,13,23.60
2007,08,14,17,14,23.60
2007,08,14,17,15,23.70
2007,08,14,17,16,23.80
2007,08,14,17,17,23.80
2007,08,14,17,18,23.90
2007,08,14,17,19,24.00